Location: Castellar de la Frontera
(36.3200°N, 5.4500°W)
Time: 19:21:28
(UTC+02:00)

ISS - Visible Passes

Search period start: 15 May 2021 00:00
Search period end: 25 May 2021 00:00
Orbit: 417 x 422 km, 51.6° (Epoch: 15 May)

Date Brightness Start Highest point End Pass type
(mag) Time Alt. Az. Time Alt. Az. Time Alt. Az.
15 May -0.7 00:24:28 10° WNW 00:26:43 16° NNW 00:28:57 10° NNE visible
15 May -1.6 05:17:47 10° NNW 05:20:46 28° NNE 05:23:44 10° E visible
15 May -3.1 21:59:11 10° SSW 22:02:14 34° SE 22:05:19 10° ENE visible
15 May -1.3 23:36:19 10° W 23:39:05 24° NNW 23:41:53 10° NNE visible
16 May -0.9 04:30:40 10° NNW 04:33:10 19° NNE 04:35:40 10° ENE visible
16 May -3.6 06:06:54 10° WNW 06:10:10 50° SW 06:13:26 10° SSE visible
16 May -2.1 22:48:23 10° WSW 22:51:32 37° NW 22:54:41 10° NE visible
17 May -0.5 03:43:43 10° N 03:45:30 14° NNE 03:47:19 10° ENE visible
17 May -3.8 05:19:23 10° NW 05:22:45 85° NE 05:26:07 10° SE visible
17 May -3.3 22:00:42 10° WSW 22:04:02 66° NW 22:07:22 10° NE visible
17 May -0.3 23:40:00 10° NW 23:41:23 12° NNW 23:42:46 10° N visible
18 May -0.6 22:51:27 10° WNW 22:53:41 16° NNW 22:55:55 10° NNE visible
19 May -1.1 22:03:16 10° W 22:06:02 23° NNW 22:08:50 10° NNE visible
21 May -0.5 22:06:56 10° NW 22:08:18 12° NNW 22:09:40 10° N visible
24 May -0.3 01:24:30 10° NNW 01:24:52 12° NNW 01:24:52 12° NNW visible
